Location: Gauravaram
(16.6995°N, 80.5417°E)
Time: 12:24:57
(UTC+00:00)

Cosmos 1417 Rocket - Pass Details

Date: 03 August 2024
Orbit: 952 x 997 km, 83.0° (Epoch: 18 September)

Event Time Altitude Azimuth Distance (km) Brightness Sun altitude
Exits shadow 22:36:52 28° 186° (S) 1,702 5.5 -23.4°
Maximum altitude 22:40:18 85° 273° (W) 959 4.3 -22.7°
Drops below altitude 10° 22:46:25 10° 3° (N) 2,674 7.1 -21.4°
Sets 22:48:54 0° 3° (N) 3,620 7.9 -20.8°
